Voltar ao catálogo

TIROS 5

AtivoMeteoLEO
NORAD 309·PAYLOAD·🇺🇸 United States

Lançado Jun 19, 1962 de Cape Canaveral Space Force Station

Loading…

Próximas Passagens (próximas 24 horas)

TLE

AtualizadoSource: Space-Track

Época: Sep 14, 2026, 09:31 UTC

1 00309U 62025A   26257.39656862  .00000386  00000-0  96258-4 0  9995
2 00309  58.0880 251.7759 0185951  30.8203 330.3587 14.60725369394866

Acompanhe TIROS 5 em tempo real com AllMySat

Download on the App Store